When you browse on this site, cookies collect data to enhance your experience and personalize the content and advertising you see.
Visit our Privacy Policy to learn more. By continuing to use the site, you agree to this use of cookies and data.
  • In Sweden
  • List of Countries
  • For 7 days
  • Water Temperature
  • Weather Map
  • Weather Widgets
  • user-avatar
    Login

    Hourly Weather Golovachevka

    Today, 21 September, Saturday

    Time Temperature Precipitation Wind Pressure Humidity
    00:00 +5°C° 0 mm 2 mps 736 mmHg 92%
    01:00 +4°C° 0 mm 2 mps 736 mmHg 93%
    02:00 +5°C° 0 mm 1 mps 736 mmHg 94%
    03:00 +4°C° 0 mm 0 mps 736 mmHg 95%
    04:00 +4°C° 0 mm 1 mps 736 mmHg 95%
    05:00 +4°C° 0 mm 1 mps 736 mmHg 95%
    06:00 +4°C° 0 mm 1 mps 736 mmHg 95%
    07:00 +5°C° 0 mm 1 mps 736 mmHg 89%
    08:00 +6°C° 0 mm 1 mps 736 mmHg 84%
    09:00 +8°C° 0 mm 1 mps 736 mmHg 79%
    10:00 +9°C° 0 mm 1 mps 736 mmHg 73%
    11:00 +8°C° 0 mm 2 mps 736 mmHg 66%
    12:00 +9°C° 0 mm 2 mps 735 mmHg 60%
    13:00 +10°C° 0.1 mm 2 mps 735 mmHg 60%
    14:00 +10°C° 0.1 mm 2 mps 735 mmHg 59%
    15:00 +10°C° 0.1 mm 3 mps 735 mmHg 58%
    16:00 +9°C° 0.1 mm 2 mps 735 mmHg 64%
    17:00 +8°C° 0.1 mm 2 mps 734 mmHg 70%
    18:00 +7°C° 0.1 mm 2 mps 734 mmHg 76%
    19:00 +6°C° 0.2 mm 2 mps 734 mmHg 81%
    20:00 +5°C° 0.2 mm 2 mps 734 mmHg 85%
    21:00 +5°C° 0.2 mm 2 mps 734 mmHg 90%
    22:00 +4°C° 0 mm 2 mps 734 mmHg 91%
    23:00 +4°C° 0 mm 2 mps 734 mmHg 92%

    Tomorrow, 22 September, Sunday

    Time Temperature Precipitation Wind Pressure Humidity
    00:00 +3°C° 0 mm 2 mps 733 mmHg 93%
    01:00 +3°C° 0 mm 2 mps 733 mmHg 94%
    02:00 +2°C° 0 mm 2 mps 733 mmHg 94%
    03:00 +2°C° 0 mm 2 mps 732 mmHg 94%
    04:00 +2°C° 0 mm 2 mps 732 mmHg 93%
    05:00 +2°C° 0 mm 2 mps 731 mmHg 92%
    06:00 +1°C° 0 mm 2 mps 731 mmHg 91%
    07:00 +2°C° 0 mm 3 mps 730 mmHg 86%
    08:00 +3°C° 0 mm 4 mps 730 mmHg 80%
    09:00 +5°C° 0 mm 5 mps 729 mmHg 75%
    10:00 +4°C° 0.1 mm 6 mps 728 mmHg 77%
    11:00 +3°C° 0.1 mm 7 mps 727 mmHg 79%
    12:00 +2°C° 0.1 mm 8 mps 726 mmHg 81%
    13:00 +3°C° 0.4 mm 7 mps 725 mmHg 85%
    14:00 +3°C° 0.4 mm 7 mps 724 mmHg 89%
    15:00 +2°C° 0.4 mm 7 mps 723 mmHg 92%
    16:00 +2°C° 0.7 mm 7 mps 723 mmHg 90%
    17:00 +3°C° 0.7 mm 7 mps 722 mmHg 88%
    18:00 +3°C° 0.7 mm 7 mps 722 mmHg 86%
    19:00 +2°C° 0.1 mm 7 mps 721 mmHg 88%
    20:00 0°C° 0.1 mm 7 mps 721 mmHg 91%
    21:00 -1°C° 0.1 mm 8 mps 721 mmHg 93%
    22:00 -1°C° 0.4 mm 8 mps 722 mmHg 94%
    23:00 -1°C° 0.4 mm 8 mps 722 mmHg 94%

    Day after tomorrow, 23 September, Monday

    Time Temperature Precipitation Wind Pressure Humidity
    00:00 -1°C° 0.4 mm 9 mps 722 mmHg 95%
    01:00 -1°C° 0.4 mm 9 mps 723 mmHg 94%
    02:00 0°C° 0.4 mm 9 mps 724 mmHg 93%
    03:00 0°C° 0.4 mm 10 mps 725 mmHg 92%
    04:00 0°C° 0.1 mm 9 mps 726 mmHg 91%
    05:00 0°C° 0.1 mm 8 mps 728 mmHg 90%
    06:00 0°C° 0.1 mm 8 mps 729 mmHg 89%
    07:00 -1°C° 0 mm 8 mps 730 mmHg 87%
    08:00 -1°C° 0 mm 8 mps 731 mmHg 85%
    09:00 -1°C° 0 mm 8 mps 732 mmHg 83%
    10:00 -1°C° 0 mm 8 mps 732 mmHg 81%
    11:00 0°C° 0 mm 8 mps 733 mmHg 80%
    12:00 0°C° 0 mm 8 mps 733 mmHg 78%
    13:00 0°C° 0 mm 8 mps 734 mmHg 77%
    14:00 +1°C° 0 mm 8 mps 734 mmHg 76%
    15:00 +1°C° 0 mm 8 mps 734 mmHg 76%
    16:00 +1°C° 0.1 mm 8 mps 735 mmHg 78%
    17:00 +2°C° 0.1 mm 7 mps 735 mmHg 81%
    18:00 +1°C° 0.1 mm 6 mps 735 mmHg 84%
    19:00 +1°C° 0.1 mm 6 mps 735 mmHg 83%
    20:00 +1°C° 0.1 mm 6 mps 736 mmHg 83%
    21:00 0°C° 0.1 mm 5 mps 736 mmHg 83%
    22:00 0°C° 0 mm 5 mps 736 mmHg 83%
    23:00 0°C° 0 mm 5 mps 736 mmHg 84%

    24 September, Tuesday

    Time Temperature Precipitation Wind Pressure Humidity
    00:00 -1°C° 0 mm 5 mps 737 mmHg 84%
    01:00 -1°C° 0 mm 5 mps 737 mmHg 86%
    02:00 -1°C° 0 mm 5 mps 737 mmHg 88%
    03:00 -1°C° 0 mm 4 mps 738 mmHg 89%
    04:00 -2°C° 0 mm 4 mps 738 mmHg 90%
    05:00 -2°C° 0 mm 4 mps 738 mmHg 91%
    06:00 -3°C° 0 mm 4 mps 738 mmHg 92%
    07:00 -1°C° 0 mm 4 mps 739 mmHg 87%
    08:00 0°C° 0 mm 4 mps 739 mmHg 83%
    09:00 +1°C° 0 mm 4 mps 739 mmHg 78%
    10:00 +3°C° 0 mm 4 mps 739 mmHg 73%
    11:00 +4°C° 0 mm 4 mps 739 mmHg 68%
    12:00 +5°C° 0 mm 4 mps 740 mmHg 63%
    13:00 +5°C° 0.1 mm 4 mps 739 mmHg 61%
    14:00 +5°C° 0.1 mm 5 mps 739 mmHg 60%
    15:00 +6°C° 0.1 mm 5 mps 739 mmHg 59%
    16:00 +5°C° 0.1 mm 4 mps 739 mmHg 64%
    17:00 +4°C° 0.1 mm 3 mps 739 mmHg 70%
    18:00 +3°C° 0.1 mm 3 mps 739 mmHg 75%
    19:00 +3°C° 0 mm 2 mps 739 mmHg 78%
    20:00 +2°C° 0 mm 2 mps 740 mmHg 81%
    21:00 +2°C° 0 mm 2 mps 740 mmHg 84%
    22:00 +1°C° 0 mm 2 mps 740 mmHg 85%
    23:00 +1°C° 0 mm 2 mps 740 mmHg 87%

    25 September, Wednesday

    Time Temperature Precipitation Wind Pressure Humidity
    00:00 +1°C° 0 mm 2 mps 740 mmHg 88%
    01:00 -1°C° 0 mm 2 mps 740 mmHg 89%
    02:00 -1°C° 0 mm 2 mps 740 mmHg 90%
    03:00 -1°C° 0 mm 2 mps 740 mmHg 91%
    04:00 -2°C° 0 mm 2 mps 740 mmHg 92%
    05:00 -2°C° 0 mm 2 mps 740 mmHg 92%
    06:00 -2°C° 0 mm 2 mps 740 mmHg 92%
    07:00 +1°C° 0 mm 2 mps 741 mmHg 85%
    08:00 +2°C° 0 mm 2 mps 741 mmHg 77%
    09:00 +3°C° 0 mm 3 mps 741 mmHg 70%
    10:00 +4°C° 0 mm 3 mps 741 mmHg 66%
    11:00 +5°C° 0 mm 4 mps 741 mmHg 62%
    12:00 +6°C° 0 mm 4 mps 741 mmHg 58%
    13:00 +6°C° 0 mm 4 mps 741 mmHg 58%
    14:00 +6°C° 0 mm 4 mps 741 mmHg 58%
    15:00 +7°C° 0 mm 3 mps 741 mmHg 57%
    16:00 +5°C° 0 mm 3 mps 741 mmHg 61%
    17:00 +5°C° 0 mm 2 mps 741 mmHg 65%
    18:00 +5°C° 0 mm 1 mps 741 mmHg 68%
    19:00 +5°C° 0 mm 1 mps 742 mmHg 68%
    20:00 +5°C° 0 mm 1 mps 742 mmHg 68%
    21:00 +4°C° 0 mm 0 mps 742 mmHg 68%
    22:00 +4°C° 0 mm 0 mps 742 mmHg 69%
    23:00 +4°C° 0 mm 0 mps 742 mmHg 70%

    26 September, Thursday

    Time Temperature Precipitation Wind Pressure Humidity
    00:00 +4°C° 0 mm 0 mps 742 mmHg 70%
    01:00 +3°C° 0 mm 0 mps 742 mmHg 74%
    02:00 +3°C° 0 mm 1 mps 742 mmHg 78%
    03:00 +2°C° 0 mm 1 mps 743 mmHg 81%
    04:00 +2°C° 0 mm 1 mps 743 mmHg 83%
    05:00 +2°C° 0 mm 1 mps 743 mmHg 84%
    06:00 0°C° 0 mm 0 mps 743 mmHg 86%
    07:00 +2°C° 0 mm 0 mps 743 mmHg 79%
    08:00 +3°C° 0 mm 0 mps 743 mmHg 72%
    09:00 +5°C° 0 mm 0 mps 744 mmHg 64%
    10:00 +6°C° 0 mm 0 mps 744 mmHg 60%
    11:00 +7°C° 0 mm 0 mps 744 mmHg 55%
    12:00 +8°C° 0 mm 0 mps 744 mmHg 50%
    13:00 +8°C° 0 mm 0 mps 744 mmHg 49%
    14:00 +8°C° 0 mm 0 mps 744 mmHg 48%
    15:00 +8°C° 0 mm 0 mps 743 mmHg 46%
    16:00 +7°C° 0 mm 0 mps 743 mmHg 50%
    17:00 +6°C° 0 mm 0 mps 743 mmHg 54%
    18:00 +6°C° 0 mm 1 mps 743 mmHg 58%
    19:00 +6°C° 0 mm 1 mps 743 mmHg 60%
    20:00 +5°C° 0 mm 1 mps 743 mmHg 62%
    21:00 +5°C° 0 mm 1 mps 743 mmHg 64%
    22:00 +3°C° 0 mm 2 mps 743 mmHg 66%
    23:00 +3°C° 0 mm 2 mps 743 mmHg 68%
    Show more